Hourly Data Report for November 13, 2019

All times are specified in Local Standard Time (LST). Add 1 hour to adjust for Daylight Saving Time where and when it is observed.

MIRAMICHI RCS
NEW BRUNSWICK
Current Station Operator: ECCC - MSC

47°00'34.000" N
65°27'54.000" W
33.00 m
8100989
71744
ACQ

Download Data

Hourly Data (November 2019)
Hourly Data Report for November 13, 2019
TIME Temp Definition
°C
Dew Point Definition
°C
Rel Hum Definition
%
Wind Dir Definition
10's deg

Wind Spd Definition
km/h
Visibility Definition
km
Stn Press Definition
kPa
Hmdx Definition


Wind Chill Definition


Weather Definition


00:00 -2.5 -4.9 83 25 21   99.56   -9 LegendNANA
01:00 -2.8 -5.5 82 25 20   99.54   -9 LegendNANA
02:00 -3.2 -6.1 80 25 20   99.54   -9 LegendNANA
03:00 -3.8 -7.1 78 26 22   99.57   -10 LegendNANA
04:00 -4.2 -8.0 74 25 26   99.54   -11 LegendNANA
05:00 -4.9 -8.6 75 25 24   99.56   -12 LegendNANA
06:00 -5.9 -9.3 76 24 24   99.57   -13 LegendNANA
07:00 -6.7 -9.8 79 24 20   99.62   -14 LegendNANA
08:00 -6.8 -9.9 78 24 25   99.73   -15 LegendNANA
09:00 -6.6 -10.3 75 24 26   99.83   -15 LegendNANA
10:00 -5.9 -10.1 72 25 23   99.85   -13 LegendNANA
11:00 -4.1 -10.0 63 27 21   99.97   -11 LegendNANA
12:00 -3.8 -10.8 58 30 23   100.03   -11 LegendNANA
13:00 -3.9 -9.8 63 30 19   100.13   -10 LegendNANA
14:00 -3.3 -11.7 52 30 28   100.25   -11 LegendNANA
15:00 -3.1 -10.7 56 28 34   100.38   -11 LegendNANA
16:00 -4.3 -10.1 64 30 22   100.62   -11 LegendNANA
17:00 -4.8 -11.5 60 29 25   100.82   -12 LegendNANA
18:00 -5.6 -11.9 61 28 21   101.02   -12 LegendNANA
19:00 -6.3 -11.8 65 27 18   101.16   -13 LegendNANA
20:00 -6.8 -11.6 69 26 14   101.32   -13 LegendNANA
21:00 -7.1 -11.5 71 26 14   101.46   -13 LegendNANA
22:00 -7.2 -11.4 72 26 13   101.60   -13 LegendNANA
23:00 -7.6 -11.7 73 26 12   101.68   -13 LegendNANA

Notes on Data Quality.

Legend

  • E = Estimated
  • M = Missing
  • NA = Not Available
Date modified: